[Iaude] MPEC T102: 2023 TC3 [a=1.35,e=0.35,i=12.4,H=26.5]

mpec at marsden.cfa.harvard.edu mpec at marsden.cfa.harvard.edu
Sun Oct 8 10:25:05 EDT 2023


M.P.E.C. 2023-T102                              Issued 2023 October 8, 14:23 UT

     The Minor Planet Electronic Circulars contain information on unusual
         minor planets, routine data on comets and natural satellites,
         and occasional editorial announcements.  They are published
    on behalf of Division F of the International Astronomical Union by the
          Minor Planet Center, Smithsonian Astrophysical Observatory,
                          Cambridge, MA 02138, U.S.A.
			  
             Prepared using the Tamkin Foundation Computer Network

                              MPC at CFA.HARVARD.EDU
            URL https://www.minorplanetcenter.net/    ISSN 1523-6714

                                    2023 TC3                                    


Observations:
     K23T03C*1C2023 10 05.30529500 56 06.158+08 48 27.90         20.43GVET102G96
     K23T03C 1C2023 10 05.31093700 56 07.289+08 47 17.74         21.02GVET102G96
     K23T03C 1C2023 10 05.31656600 56 08.423+08 46 06.64         20.60GVET102G96
     K23T03C 1C2023 10 05.32221200 56 09.535+08 44 56.11         20.66GVET102G96
     K23T03C KC2023 10 05.44004800 56 33.680+08 20 33.20         20.58GVET102I52
     K23T03C KC2023 10 05.44115500 56 33.950+08 20 19.90         20.71GVET102I52
     K23T03C KC2023 10 06.25532800 59 46.93 +05 44 29.7          20.9 GXET102858
     K23T03C KC2023 10 06.26195100 59 45.83 +05 43 10.4          21.2 VuET102H21
     K23T03C KC2023 10 06.26355400 59 48.28 +05 43 01.4          21.1 GXET102858
     K23T03C KC2023 10 06.26447700 59 46.26 +05 42 43.4          21.7 VuET102H21
     K23T03C KC2023 10 06.27031400 59 49.44 +05 41 49.5          22.1 GXET102858
     K23T03C KC2023 10 08.23542501 05 44.61 +00 38 51.9          22.1 GXET102858
     K23T03C KC2023 10 08.24940001 05 46.25 +00 37 01.3          21.1 GXET102858

Observer details:
858 Tebbutt Observatory, Edgewood.  Observer F. B. Zoltowski.  0.51-m f/8.1
    Schmidt-Cassegrain + CCD.
G96 Mt. Lemmon Survey.  Observer G. J. Leonard.  Measurers E. C. Beshore, D.
    Fay, J. B. Fazekas, D. C. Fuls, A. R. Gibbs, A. D. Grauer, H. Groeller, J.
    K. Hogan, R. A. Kowalski, S. M. Larson, G. J. Leonard, D. Rankin, R. L.
    Seaman, F. C. Shelly, K. W. Wierzchos.  1.5-m reflector + 10K CCD.
H21 Astronomical Research Observatory, Westfield.  Observer R. Holmes.
    Measurers T. Linder, R. Holmes, L. Horn.  0.81-m f/4.0 astrograph + CCD.
I52 Steward Observatory, Mt. Lemmon Station.  Observer D. Rankin.  Measurers
    E. C. Beshore, D. Fay, J. B. Fazekas, D. C. Fuls, A. R. Gibbs, A. D.
    Grauer, H. Groeller, J. K. Hogan, R. A. Kowalski, S. M. Larson, G. J.
    Leonard, D. Rankin, R. L. Seaman, F. C. Shelly, K. W. Wierzchos.  1.0-m
    prime focus + CCD.

Orbital elements:
2023 TC3                                                 Earth MOID = 0.0386 AU
Epoch 2023 Sept. 13.0 TT = JDT 2460200.5                Bell                    
M  22.71132              (2000.0)            P               Q                  
n   0.62848496     Peri.  108.35686     +0.50784063     +0.86019532             
a   1.3498105      Node   192.48319     -0.84905951     +0.49068413             
e   0.3491826      Incl.   12.42188     -0.14558794     +0.13889962             
P   1.57           H   26.59          G   0.15           U   8                  
Residuals in seconds of arc
231005 G96  0.2+  0.1+    231005 I52  0.3+  0.2+    231006 858  0.0   0.3+
231005 G96  0.1+  0.5+    231006 858  0.2+  0.3-    231008 858  0.8+  0.8+
231005 G96  0.1+  0.2-    231006 H21  0.4-  0.5-    231008 858  0.8+  1.1+
231005 G96  0.3-  0.1-    231006 858  0.4-  0.3-
231005 I52  0.2-  0.2-    231006 H21  0.4-  0.4-

Ephemeris:
2023 TC3                 a,e,i = 1.35, 0.35, 12                  q = 0.8785
Date    TT    R. A. (2000) Decl.     Delta      r    Elong.  Phase     V
2023 09 08    14 09 39.6 +42 56 44   0.1304  0.9391    55.0   118.4    26.8
...
2023 09 23    17 24 01.0 +71 29 49   0.04925 1.0024    87.1    90.1    23.2
...
2023 10 01    00 26 32.2 +30 23 47   0.04508 1.0416   152.5    26.4    21.1
...
2023 10 07    01 02 13.0 +03 39 42   0.07304 1.0726   176.2     3.5    21.4
2023 10 08    01 05 05.4 +01 11 42   0.07878 1.0779   174.5     5.1    21.7
2023 10 09    01 07 33.1 -00 55 46   0.08469 1.0832   172.5     6.9    21.9
...
2023 10 15    01 17 01.3 -09 01 42   0.1229  1.1154   162.8    15.4    23.1
...
2023 10 23    01 23 18.5 -13 38 22   0.1789  1.1591   154.5    21.7    24.2
...
2023 11 07    01 30 46.5 -15 32 15   0.2963  1.2417   143.4    28.4    25.7

M. P. C. Staff               (C) Copyright 2023 MPC           M.P.E.C. 2023-T102





More information about the Iaude mailing list